Location: Newark
(52.2372°N, 141.5117°E)
Time: 04:12:12
(UTC+00:00)

ISS - Visible Passes

Search period start: 16 September 2019 00:00
Search period end: 26 September 2019 00:00
Orbit: 411 x 421 km, 51.6° (Epoch: 16 September)

Date Brightness Start Highest point End Pass type
(mag) Time Alt. Az. Time Alt. Az. Time Alt. Az.
20 Sep -1.9 10:07:17 10° S 10:08:42 16° SSE 10:08:42 16° SSE visible
21 Sep -1.6 09:19:55 10° SSE 09:21:19 12° SE 09:22:41 10° ESE visible
21 Sep -1.9 10:54:15 10° SW 10:55:36 21° SW 10:55:36 21° SW visible
22 Sep -3.0 10:06:00 10° SW 10:09:01 32° SSE 10:09:22 31° SE visible
22 Sep -0.6 11:42:12 10° WSW 11:42:16 11° WSW 11:42:16 11° WSW visible
23 Sep -2.4 09:17:56 10° SSW 09:20:39 23° SSE 09:22:59 12° E visible
23 Sep -2.6 10:53:43 10° WSW 10:55:53 36° WSW 10:55:53 36° WSW visible
24 Sep -3.6 10:05:17 10° WSW 10:08:33 54° SSE 10:09:22 40° ESE visible
24 Sep -0.7 11:41:51 10° W 11:42:16 13° W 11:42:16 13° W visible
25 Sep -3.2 09:16:55 10° SW 09:20:05 41° SSE 09:22:47 13° E visible
25 Sep -2.7 10:53:19 10° W 10:55:40 42° WSW 10:55:40 42° WSW visible
